Weather History for Stanley, ND

Change the Weather History Date:

Thursday, April 3, 2014

  Actual Average (KMOT) Record (KMOT)
Temperature  
Mean Temperature 26 °F 37 °F  
Max Temperature 32 °F 48 °F 77 °F (1988)
Min Temperature 19 °F 27 °F -3 °F (1920)
Degree Days  
Heating Degree Days 40 28  
Month to date heating degree days 85  
Since 1 July heating degree days 7800  
Cooling Degree Days 0 0  
Month to date cooling degree days 0  
Year to date cooling degree days 0  
Moisture  
Dew Point 24 °F    
Average Humidity 91    
Maximum Humidity 100    
Minimum Humidity 75    
Precipitation  
Precipitation 0.15 in 0.03 in 0.16 in (2011)
Month to date precipitation 0.09  
Year to date precipitation 1.84  
Sea Level Pressure  
Sea Level Pressure 29.99 in    
Wind  
Wind Speed 8 mph (NNE)    
Max Wind Speed 14 mph    
Max Gust Speed 17 mph    
Visibility 9 miles    
Events Snow    
T = Trace of Precipitation, MM = Missing Value Source: NWS Daily Summary

Daily Weather History Graph

Daily Weather History Graph

Search for Another Location

Airport:

Trip Planner

Search our weather history database for the weather conditions in past years. The results will help you decide how hot, cold, wet, or windy it might be!

Date:

Astronomy

Apr. 03, 2014 Rise Set
Actual Time 7:23 AM CDT 8:23 PM CDT
Civil Twilight 6:51 AM CDT 8:54 PM CDT
Nautical Twilight 6:13 AM CDT 9:33 PM CDT
Astronomical Twilight 5:33 AM CDT 10:13 PM CDT
Moon 9:38 AM CDT (4/3) 12:01 AM CDT (4/3)
Length of Visible Light 14h 03m
Length of Day
12h 59m
Waxing Crescent, 17% of the Moon is Illuminated
Apr 3
Waxing Crescent
Apr 7
First Quarter
Apr 15
Full
Apr 22
Last Quarter
Apr 29
New

Hourly Weather History & Observations

Time (CDT) Temp. Windchill Dew Point Humidity Pressure Visibility Wind Dir Wind Speed Gust Speed Precip Events Conditions
12:15 AM 23.0 °F 11.1 °F 23.0 °F 100% 29.98 in 5.0 mi SE 12.7 mph - N/A   Mostly Cloudy
12:55 AM 23.0 °F 11.7 °F 23.0 °F 100% 29.98 in 4.0 mi ESE 11.5 mph - N/A   Overcast
1:15 AM 23.0 °F 12.4 °F 23.0 °F 100% 29.97 in 3.0 mi SE 10.4 mph - N/A   Overcast
1:35 AM 23.0 °F 12.4 °F 23.0 °F 100% 29.97 in 3.0 mi ESE 10.4 mph - N/A Snow Light Snow
1:55 AM 23.0 °F 12.4 °F 23.0 °F 100% 29.97 in 3.0 mi ESE 10.4 mph - N/A   Overcast
2:15 AM 23.0 °F 12.4 °F 23.0 °F 100% 29.97 in 4.0 mi SE 10.4 mph - N/A Snow Light Snow
2:35 AM 23.0 °F 12.4 °F 23.0 °F 100% 29.97 in 6.0 mi SE 10.4 mph - N/A   Mostly Cloudy
2:55 AM 23.0 °F 12.4 °F 23.0 °F 100% 29.96 in 10.0 mi SE 10.4 mph - N/A   Overcast
3:15 AM 23.0 °F 13.1 °F 23.0 °F 100% 29.95 in 3.0 mi ESE 9.2 mph - N/A Snow Light Snow
3:35 AM 21.2 °F 13.6 °F 21.2 °F 100% 29.95 in 10.0 mi ESE 5.8 mph - N/A   Overcast
3:55 AM 21.2 °F - 21.2 °F 100% 29.95 in 10.0 mi Calm Calm - N/A   Overcast
4:15 AM 21.2 °F - 21.2 °F 100% 29.95 in 9.0 mi Calm Calm - N/A Snow Light Snow
4:35 AM 23.0 °F 18.4 °F 23.0 °F 100% 29.94 in 7.0 mi East 3.5 mph - 0.01 in Snow Light Snow
4:55 AM 21.2 °F 13.6 °F 21.2 °F 100% 29.94 in 10.0 mi ESE 5.8 mph - 0.02 in Snow Light Snow
5:15 AM 19.4 °F 12.8 °F 19.4 °F 100% 29.94 in 10.0 mi East 4.6 mph - N/A   Mostly Cloudy
5:35 AM 21.2 °F 13.6 °F 21.2 °F 100% 29.94 in 6.0 mi East 5.8 mph - N/A Snow Light Snow
5:55 AM 21.2 °F 13.6 °F 21.2 °F 100% 29.94 in 10.0 mi East 5.8 mph - N/A   Overcast
6:15 AM 21.2 °F 14.9 °F 21.2 °F 100% 29.94 in 9.0 mi East 4.6 mph - N/A Snow Light Snow
6:35 AM 21.2 °F 16.4 °F 21.2 °F 100% 29.94 in 2.5 mi East 3.5 mph - 0.07 in Snow Light Snow
6:55 AM 21.2 °F - 21.2 °F 100% 29.94 in 5.0 mi Calm Calm - 0.11 in Snow Light Snow
7:15 AM 21.2 °F 14.9 °F 21.2 °F 100% 29.94 in 8.0 mi East 4.6 mph - N/A Snow Light Snow
7:35 AM 21.2 °F - 21.2 °F 100% 29.94 in 10.0 mi Calm Calm - 0.01 in Snow Light Snow
7:55 AM 19.4 °F 14.3 °F 19.4 °F 100% 29.95 in 10.0 mi ENE 3.5 mph - 0.02 in Snow Light Snow
8:15 AM 19.4 °F - 19.4 °F 100% 29.96 in 10.0 mi Calm Calm - N/A   Overcast
8:35 AM 19.4 °F - 19.4 °F 100% 29.96 in 10.0 mi Calm Calm - N/A Snow Light Snow
8:55 AM 21.2 °F 16.4 °F 21.2 °F 100% 29.96 in 10.0 mi NE 3.5 mph - N/A Snow Light Snow
9:15 AM 21.2 °F - 21.2 °F 100% 29.97 in 10.0 mi Calm Calm - N/A   Mostly Cloudy
9:35 AM 23.0 °F 18.4 °F 23.0 °F 100% 29.97 in 10.0 mi ENE 3.5 mph - N/A   Overcast
9:55 AM 23.0 °F - 23.0 °F 100% 29.97 in 10.0 mi Calm Calm - N/A   Overcast
10:15 AM 23.0 °F - 23.0 °F 100% 29.98 in 10.0 mi Calm Calm - N/A   Scattered Clouds
10:35 AM 24.8 °F - 23.0 °F 93% 29.98 in 10.0 mi Calm Calm - N/A   Partly Cloudy
10:55 AM 26.6 °F - 24.8 °F 93% 29.98 in 10.0 mi Calm Calm - N/A   Mostly Cloudy
11:15 AM 26.6 °F - 24.8 °F 93% 29.98 in 10.0 mi Calm Calm - N/A   Overcast
11:35 AM 26.6 °F 20.0 °F 24.8 °F 93% 29.98 in 10.0 mi NNW 5.8 mph - N/A   Overcast
11:55 AM 28.4 °F 21.2 °F 24.8 °F 86% 29.98 in 10.0 mi NNW 6.9 mph - N/A   Overcast
12:15 PM 28.4 °F 20.4 °F 24.8 °F 86% 29.98 in 10.0 mi NW 8.1 mph - N/A   Overcast
12:35 PM 28.4 °F 20.4 °F 24.8 °F 86% 29.98 in 10.0 mi North 8.1 mph - N/A   Mostly Cloudy
12:55 PM 28.4 °F 21.2 °F 24.8 °F 86% 29.99 in 10.0 mi NNW 6.9 mph - N/A   Mostly Cloudy
1:15 PM 30.2 °F 23.4 °F 24.8 °F 80% 29.99 in 10.0 mi NNW 6.9 mph - N/A   Mostly Cloudy
1:35 PM 30.2 °F 23.4 °F 24.8 °F 80% 29.99 in 10.0 mi NW 6.9 mph - N/A   Mostly Cloudy
1:55 PM 32.0 °F 24.8 °F 24.8 °F 75% 29.99 in 10.0 mi NNW 8.1 mph - N/A   Overcast
2:15 PM 32.0 °F 24.8 °F 24.8 °F 75% 29.99 in 10.0 mi NW 8.1 mph - N/A   Overcast
2:35 PM 32.0 °F 23.6 °F 24.8 °F 75% 29.99 in 10.0 mi NNW 10.4 mph - N/A   Overcast
2:55 PM 32.0 °F 22.5 °F 26.6 °F 80% 29.99 in 10.0 mi NNW 12.7 mph 16.1 mph N/A   Overcast
3:15 PM 32.0 °F 22.1 °F 26.6 °F 80% 29.99 in 10.0 mi NW 13.8 mph - N/A   Overcast
3:35 PM 32.0 °F 23.6 °F 26.6 °F 80% 29.99 in 10.0 mi NNW 10.4 mph - N/A   Overcast
3:55 PM 32.0 °F 24.8 °F 26.6 °F 80% 29.99 in 10.0 mi NW 8.1 mph - N/A   Overcast
4:15 PM 32.0 °F 25.6 °F 26.6 °F 80% 30.00 in 10.0 mi North 6.9 mph - N/A   Overcast
4:35 PM 32.0 °F 22.5 °F 26.6 °F 80% 30.00 in 10.0 mi North 12.7 mph - N/A   Overcast
4:55 PM 32.0 °F 22.1 °F 26.6 °F 80% 30.00 in 10.0 mi NNW 13.8 mph - N/A   Overcast
5:15 PM 32.0 °F 22.1 °F 26.6 °F 80% 30.01 in 10.0 mi North 13.8 mph 17.3 mph N/A   Overcast
5:35 PM 32.0 °F 22.1 °F 26.6 °F 80% 30.01 in 10.0 mi North 13.8 mph - N/A   Overcast
5:55 PM 32.0 °F 23.6 °F 26.6 °F 80% 30.02 in 10.0 mi NNW 10.4 mph - N/A   Overcast
6:15 PM 32.0 °F 22.5 °F 26.6 °F 80% 30.02 in 10.0 mi North 12.7 mph - N/A   Overcast
6:35 PM 32.0 °F 23.0 °F 26.6 °F 80% 30.03 in 10.0 mi North 11.5 mph - N/A   Overcast
6:55 PM 32.0 °F 22.5 °F 26.6 °F 80% 30.03 in 10.0 mi NNW 12.7 mph - N/A   Overcast
7:15 PM 32.0 °F 23.0 °F 26.6 °F 80% 30.04 in 10.0 mi NNW 11.5 mph - N/A   Overcast
7:35 PM 32.0 °F 23.6 °F 26.6 °F 80% 30.04 in 10.0 mi North 10.4 mph - N/A   Overcast
7:55 PM 32.0 °F 24.2 °F 28.4 °F 87% 30.05 in 10.0 mi North 9.2 mph - N/A   Overcast
8:15 PM 30.2 °F 20.8 °F 28.4 °F 93% 30.05 in 10.0 mi North 11.5 mph - N/A   Overcast
8:55 PM 30.2 °F 22.6 °F 26.6 °F 86% 30.06 in 10.0 mi North 8.1 mph - N/A   Overcast
9:15 PM 30.2 °F 21.3 °F 24.8 °F 80% 30.06 in 10.0 mi North 10.4 mph - N/A   Overcast
9:35 PM 30.2 °F 21.3 °F 24.8 °F 80% 30.07 in 10.0 mi North 10.4 mph - N/A   Overcast
11:15 PM 28.4 °F 19.7 °F 24.8 °F 86% 30.07 in 10.0 mi North 9.2 mph - N/A   Overcast
11:35 PM 26.6 °F 16.8 °F 24.8 °F 93% 30.07 in 10.0 mi North 10.4 mph - N/A   Overcast
11:55 PM 26.6 °F 17.5 °F 24.8 °F 93% 30.07 in 10.0 mi North 9.2 mph - N/A   Overcast